Date String (YYYY-MM-DD hh:mm:ss) UTC,Instrument flags,absolute air pressure of the measurement (hPa),sample flow rate (lpm),inlet stack bypass flow (lpm),air temperature of the measurement (°C),ambient temperature measured by the external sensor (°C),aerosol sample conditioner tube jacket temperature (°C),OPC LED temperature (°C),internal box temperature (°C),relative humidity of the measurement (%),span deviation,mass concentration of particles derived from Lorenz-Mie calculation of OPC scattering (μg/m³),mass concentration of particles derived from Lorenz-Mie calculation of OPC scattering (μg/m³),mass concentration of particles derived from Lorenz-Mie calculation of OPC scattering (μg/m³)
DateTimeUTC,F1_M11,P_M11,Q1_M11,Q2_M11,T1_M11,T2_M11,T3_M11,T4_M11,T5_M11,U1_M11,ZSPAN_M11,X0_M11,X2_M11,X1_M11
2023-08-02 08:00:00,SystemResetWarning,0834.0,5.00,000.00,030.0,027.0,000.0,038.6,031.1,31.2,0000.0,0012.45,0004.92,0003.70
2023-08-02 08:01:00,SystemResetWarning,0833.9,4.99,000.00,030.0,027.2,000.0,038.6,031.1,31.4,0000.0,0012.35,0004.90,0003.68
2023-08-02 08:02:00,SystemResetWarning,0834.0,4.99,000.00,030.0,027.5,000.0,038.6,031.2,31.0,0000.0,0012.21,0004.93,0003.68
2023-08-02 08:03:00,SystemResetWarning,0833.9,5.01,000.00,030.0,027.7,000.0,038.6,031.2,30.9,0000.0,0011.36,0004.97,0003.67
2023-08-02 08:04:00,SystemResetWarning,0833.9,5.01,000.00,030.0,027.8,000.0,038.5,031.2,30.9,0000.0,0011.59,0005.06,0003.69
2023-08-02 08:05:00,SystemResetWarning,0833.9,5.00,000.00,030.0,028.0,000.0,038.5,031.2,30.5,0000.0,0011.50,0005.12,0003.69
2023-08-02 08:06:00,SystemResetWarning,0833.9,5.00,000.00,030.0,028.1,000.0,038.5,031.3,30.4,0000.0,0011.30,0005.11,0003.70
2023-08-02 08:07:00,SystemResetWarning,0834.0,4.99,000.00,030.0,028.1,000.0,038.5,031.3,30.7,0000.0,0011.32,0005.11,0003.70
2023-08-02 08:08:00,SystemResetWarning,0833.9,5.00,000.00,030.0,028.2,000.0,038.5,031.3,31.2,0000.0,0010.78,0005.06,0003.69
2023-08-02 08:09:00,SystemResetWarning,0833.9,5.00,000.00,030.0,028.3,000.0,038.5,031.3,31.0,0000.0,0010.66,0004.98,0003.67
2023-08-02 08:10:00,SystemResetWarning,0833.8,5.00,000.00,030.0,028.3,000.0,038.5,031.3,30.5,0000.0,0010.32,0004.94,0003.65
2023-08-02 08:11:00,SystemResetWarning,0833.8,5.00,000.00,030.0,028.4,000.0,038.5,031.4,30.5,0000.0,0009.96,0004.87,0003.62
2023-08-02 08:12:00,SystemResetWarning,0833.9,5.00,000.00,030.0,028.4,000.0,038.5,031.4,30.4,0000.0,0009.73,0004.79,0003.58
2023-08-02 08:13:00,SystemResetWarning,0833.9,5.01,000.00,030.1,028.4,000.0,038.5,031.4,30.2,0000.0,0009.32,0004.69,0003.53
2023-08-02 08:14:00,SystemResetWarning,0834.0,5.00,000.00,030.1,028.5,000.0,038.5,031.4,30.5,0000.0,0008.95,0004.54,0003.49
2023-08-02 08:15:00,SystemResetWarning,0833.9,5.00,000.00,030.1,028.5,000.0,038.5,031.5,31.2,0000.0,0008.67,0004.42,0003.44
2023-08-02 08:16:00,SystemResetWarning,0834.0,5.00,000.00,030.1,028.6,000.0,038.5,031.5,32.4,0000.0,0008.35,0004.26,0003.38
2023-08-02 08:17:00,SystemResetWarning,0834.0,5.00,000.00,030.1,028.6,000.0,038.5,031.5,32.3,0000.0,0008.30,0004.11,0003.32
2023-08-02 08:18:00,SystemResetWarning,0833.9,5.00,000.00,030.1,028.6,000.0,038.5,031.6,32.2,0000.0,0008.22,0004.00,0003.27
2023-08-02 08:19:00,SystemResetWarning,0834.0,5.01,000.00,030.1,028.6,000.0,038.6,031.6,31.4,0000.0,0007.88,0003.88,0003.23
2023-08-02 08:20:00,SystemResetWarning,0833.9,5.00,000.00,030.1,028.7,000.0,038.6,031.5,31.4,0000.0,0007.65,0003.81,0003.20
2023-08-02 08:21:00,SystemResetWarning,0833.9,5.01,000.00,030.2,028.7,000.0,038.6,031.5,31.6,0000.0,0007.26,0003.71,0003.16
2023-08-02 08:22:00,SystemResetWarning,0833.9,5.00,000.00,030.2,028.6,000.0,038.6,031.6,31.8,0000.0,0007.43,0003.69,0003.13
2023-08-02 08:23:00,SystemResetWarning,0833.8,4.98,000.00,030.2,027.2,000.0,038.4,031.5,31.8,0000.0,0007.40,0003.66,0003.11
2023-08-02 08:24:00,SystemResetWarning,0833.8,5.01,000.00,030.1,025.8,000.0,038.3,031.2,32.1,0000.0,0007.33,0003.62,0003.09
2023-08-02 08:25:00,SystemResetWarning,0833.8,5.01,000.00,029.9,025.5,000.0,038.3,030.9,32.5,0000.0,0007.17,0003.58,0003.07
2023-08-02 08:26:00,SystemResetWarning,0833.8,4.99,000.00,029.8,025.7,000.0,038.3,030.8,32.8,0000.0,0006.84,0003.51,0003.02
2023-08-02 08:27:00,SystemResetWarning,0833.8,5.00,000.00,029.7,026.1,000.0,038.3,030.9,32.9,0000.0,0006.67,0003.48,0002.99
2023-08-02 08:28:00,SystemResetWarning,0833.8,5.00,000.00,029.7,026.5,000.0,038.3,030.9,33.0,0000.0,0006.56,0003.49,0002.96
2023-08-02 08:29:00,SystemResetWarning,0833.8,4.99,000.00,029.7,026.8,000.0,038.3,031.0,33.0,0000.0,0006.26,0003.48,0002.94
2023-08-02 08:30:00,SystemResetWarning,0833.8,5.00,000.00,029.7,027.1,000.0,038.3,031.0,32.9,0000.0,0006.01,0003.44,0002.90
2023-08-02 08:31:00,SystemResetWarning,0833.7,5.00,000.00,029.7,027.4,000.0,038.3,031.1,32.8,0000.0,0006.18,0003.44,0002.87
2023-08-02 08:32:00,SystemResetWarning,0833.7,5.00,000.00,029.7,027.6,000.0,038.3,031.1,32.5,0000.0,0006.28,0003.45,0002.84
2023-08-02 08:33:00,SystemResetWarning,0833.7,5.00,000.00,029.7,027.7,000.0,038.2,031.1,32.2,0000.0,0005.96,0003.41,0002.80
2023-08-02 08:34:00,SystemResetWarning,0833.7,5.00,000.00,029.7,027.9,000.0,038.2,031.1,32.4,0000.0,0005.83,0003.40,0002.78
2023-08-02 08:35:00,SystemResetWarning,0833.7,5.00,000.00,029.7,028.0,000.0,038.2,031.1,32.3,0000.0,0005.78,0003.39,0002.76
2023-08-02 08:36:00,SystemResetWarning,0833.7,5.00,000.00,029.7,028.1,000.0,038.2,031.2,32.9,0000.0,0006.02,0003.40,0002.75
2023-08-02 08:37:00,SystemResetWarning,0833.7,5.01,000.00,029.7,028.1,000.0,038.2,031.2,33.3,0000.0,0006.27,0003.46,0002.76
2023-08-02 08:38:00,SystemResetWarning,0833.6,5.00,000.00,029.8,028.2,000.0,038.2,031.2,33.0,0000.0,0006.49,0003.53,0002.80
2023-08-02 08:39:00,SystemResetWarning,0833.7,4.99,000.00,029.8,028.3,000.0,038.2,031.3,32.9,0000.0,0006.54,0003.55,0002.82
2023-08-02 08:40:00,SystemResetWarning,0833.7,5.00,000.00,029.8,028.3,000.0,038.2,031.3,32.6,0000.0,0006.22,0003.55,0002.85
2023-08-02 08:41:00,SystemResetWarning,0833.7,5.00,000.00,029.8,028.4,000.0,038.3,031.3,33.0,0000.0,0006.26,0003.57,0002.88
2023-08-02 08:42:00,SystemResetWarning,0833.7,5.01,000.00,029.8,028.5,000.0,038.3,031.4,32.9,0000.0,0006.29,0003.59,0002.92
2023-08-02 08:43:00,SystemResetWarning,0833.7,5.00,000.00,029.9,028.5,000.0,038.3,031.4,33.0,0000.0,0006.41,0003.61,0002.97
2023-08-02 08:44:00,SystemResetWarning,0833.7,5.00,000.00,029.9,028.5,000.0,038.3,031.4,32.7,0000.0,0006.63,0003.63,0003.01
2023-08-02 08:45:00,SystemResetWarning,0833.7,4.98,000.00,029.9,028.6,000.0,038.3,031.4,32.3,0000.0,0007.76,0003.67,0003.03
2023-08-02 08:46:00,SystemResetWarning,0833.7,5.00,000.00,029.9,028.6,000.0,038.3,031.4,31.4,0000.0,0007.78,0003.68,0003.07
2023-08-02 08:47:00,SystemResetWarning,0833.7,5.00,000.00,029.9,028.6,000.0,038.3,031.4,31.9,0000.0,0007.73,0003.70,0003.10
2023-08-02 08:48:00,SystemResetWarning,0833.7,5.01,000.00,029.9,028.6,000.0,038.3,031.5,32.3,0000.0,0007.67,0003.67,0003.12
2023-08-02 08:49:00,SystemResetWarning,0833.6,5.01,000.00,030.0,028.6,000.0,038.3,031.5,32.2,0000.0,0007.96,0003.64,0003.13
2023-08-02 08:50:00,SystemResetWarning,0833.6,5.01,000.00,030.0,028.7,000.0,038.4,031.5,31.6,0000.0,0008.09,0003.65,0003.15
2023-08-02 08:51:00,SystemResetWarning,0833.5,4.99,000.00,030.0,027.7,000.0,038.3,031.4,31.6,0000.0,0008.20,0003.70,0003.18
2023-08-02 08:52:00,SystemResetWarning,0833.4,5.00,000.00,029.9,026.0,000.0,038.2,031.2,31.7,0000.0,0008.40,0003.75,0003.20
2023-08-02 08:53:00,SystemResetWarning,0833.4,5.01,000.00,029.8,025.4,000.0,038.1,030.9,31.3,0000.0,0008.99,0003.75,0003.20
2023-08-02 08:54:00,SystemResetWarning,0833.4,4.99,000.00,029.7,025.5,000.0,038.1,030.7,31.7,0000.0,0008.94,0003.76,0003.20
2023-08-02 08:55:00,SystemResetWarning,0833.4,5.00,000.00,029.6,025.9,000.0,038.1,030.7,32.5,0000.0,0008.88,0003.77,0003.21
2023-08-02 08:56:00,SystemResetWarning,0833.4,5.01,000.00,029.6,026.3,000.0,038.1,030.8,33.1,0000.0,0008.10,0003.77,0003.21
2023-08-02 08:57:00,SystemResetWarning,0833.4,5.00,000.00,029.5,026.7,000.0,038.1,030.9,32.6,0000.0,0008.04,0003.78,0003.21
2023-08-02 08:58:00,SystemResetWarning,0833.4,4.99,000.00,029.5,027.0,000.0,038.1,030.9,31.9,0000.0,0008.13,0003.78,0003.21
2023-08-02 08:59:00,SystemResetWarning,0833.4,5.00,000.00,029.5,027.2,000.0,038.1,030.9,32.0,0000.0,0008.19,0003.78,0003.21
